Regional Weather Roundup
Issued by NWS

Home | Current Version | Previous Version | Text Only | Print | Product List | Glossary Off
Versions: 1 2 3 4 5 6 7 8 9 10 11 12 13 14 15 16 17 18 19 20 21 22 23 24 25 26 27 28 29 30 31 32 33 34 35 36 37 38 39 40 41 42 43 44 45 46 47 48 49 50

000
ASUS43 KDTX 090810
RWRMI
MICHIGAN HOURLY REGIONAL WEATHER ROUNDUP
NATIONAL WEATHER SERVICE DETROIT/PONTIAC MI
300 AM EST FRI DEC 09 2016

NOTE: "FAIR" INDICATES FEW OR NO CLOUDS BELOW 12,000 FEET WITH NO
SIGNIFICANT WEATHER AND/OR OBSTRUCTION TO VISIBILITY.

MIZ047>049-052>055-059>063-066>070-074>076-081>083-090900-
SOUTHEAST LOWER MICHIGAN

CITY           SKY/WX    TMP DP  RH WIND       PRES   REMARKS
ADRIAN         FLURRIES  23  20  88 W9G18     30.31R WCI  13
ALMA           CLOUDY    27  25  91 W6        30.28R WCI  20
ANN ARBOR      LGT SNOW  24  22  91 SW8       30.28R FOG     WCI  15
BAD AXE        CLOUDY    27  20  73 NW8       30.21R WCI  19
CARO           CLOUDY    26  24  91 W8        30.23R WCI  18
DETROIT CITY   MOCLDY    27  23  85 W8        30.27R WCI  19
DETROIT        FLURRIES  26  21  81 W15       30.29R WCI  14
FLINT          CLOUDY    28  24  85 W10       30.26R WCI  19
GROSSE ILE     CLOUDY    26  21  82 W13       30.28R WCI  15
HILLSDALE      FLURRIES  23  19  86 W12       30.28R WCI  12
HOWELL         FLURRIES  27  25  92 W8        30.25S WCI  18

CITY           SKY/WX    TMP DP  RH WIND       PRES   REMARKS
JACKSON        LGT SNOW  24  20  84 W13       30.28R FOG     WCI  12
LAMBERTVILLE   CLOUDY    25  20  81 W8        30.32R WCI  16
LANSING        LGT SNOW  27  24  89 W9        30.28R FOG     WCI  18
LAPEER         NOT AVBL
MASON          LGT SNOW  26  25  96 CALM      30.27S
MONROE         CLOUDY    26  21  83 W12       30.30R WCI  15
MT. CLEMENS    MOCLDY    29  23  78 W9        30.23R WCI  20
PONTIAC        FLURRIES  27  23  85 W9        30.23R WCI  18
PORT HOPE        N/A     29  21  72 NW14G23   30.18R WCI  18
PORT HURON     PTCLDY    25  23  93 W5        30.24R WCI  19
TRI CITIES     MOCLDY    24  22  91 W8        30.26R WCI  15
MIDLAND        FAIR      25  19  80 W3        30.25S
TROY           CLOUDY    29  24  80 SW7       30.27R WCI  22
SAGINAW HB     CLOUDY    28  23  80 W12       30.26R WCI  18
$$
MIZ043>046-050>051-056>058-064>065-071>073-077>080-090900-
SOUTHWEST LOWER MICHIGAN

CITY           SKY/WX    TMP DP  RH WIND       PRES   REMARKS
BATTLE CREEK   SNOW      27  25  92 W12       30.29R VSB 1/2 WCI  17
BENTON HARBOR  LGT SNOW  30  23  75 W14G26    30.35R WCI  19
BIG RAPIDS     CLOUDY    25  22  88 W5        30.26R WCI  19
COLDWATER      CLOUDY    23  21  90 SW13      30.31S WCI  12
FREMONT        MOCLDY    25  24  93 NW3       30.29R
HOLLAND        FLURRIES  30  25  81 NE5       30.31R WCI  25
GRAND RAPIDS   LGT SNOW  28  24  85 NW10      30.30R FOG     WCI  19
IONIA          FLURRIES  27  26  94 W8        30.28R WCI  19
KALAMAZOO      LGT SNOW  27  23  85 SW12      30.30S FOG     WCI  17
LUDINGTON      CLOUDY    29  20  68 NW13G20   30.30R WCI  19
MARSHALL       LGT SNOW  24  22  94 SW7       30.29R WCI  16
MOUNT PLEASANT MOCLDY    25  21  86 W7        30.25R WCI  17
MUSKEGON       LGT SNOW  32  22  66 NW16G29   30.31R WCI  21
SOUTH HAVEN    FLURRIES  30  25  79 NW13      30.32R WCI  20
$$
MIZ016>042-090900-
NORTHERN LOWER MICHIGAN

CITY           SKY/WX    TMP DP  RH WIND       PRES   REMARKS
ALPENA         MOCLDY    20  15  81 W5        30.22R WCI  13
BEAVER ISLAND  MOCLDY    25  15  67 N3        30.25R
BELLAIRE       LGT SNOW  26  23  89 CALM      30.24R
CADILLAC       PTCLDY    23  15  70 W9        30.21R WCI  13
CHARLEVOIX     CLOUDY    29  19  65 N13G18    30.25R WCI  19
FRANKFORT      FLURRIES  29  19  67 NW9G18    30.28R WCI  21
GAYLORD        CLOUDY    23  18  81 VRB3      30.18R
GRAYLING       LGT SNOW  25  23  92 W7        30.20R VSB 3/4 WCI  17
HARBOR SPRINGS FLURRIES  22  20  92 CALM      30.24R
HOUGHTON LAKE  PTCLDY    23  17  78 W9        30.21R WCI  13
MANISTEE       MOCLDY    29  16  58 NW13G24   30.29R WCI  19
OSCODA         CLEAR     20  17  86 MISG      30.21R
PELLSTON       PTCLDY    17  12  80 N3        30.24R
ROGERS CITY    CLOUDY    26  14  60 NW10G17   30.23R WCI  15
TRAVERSE CITY  CLOUDY    27  21  78 W10       30.25R WCI  17
$$
MIZ007>008-015-090900-
EASTERN UPPER MICHIGAN

CITY           SKY/WX    TMP DP  RH WIND       PRES   REMARKS
KINROSS        CLOUDY    17  14  88 W5        30.23R WCI  10
MACKINAC ISLAN CLOUDY    21  12  68 N3        30.23R
NEWBERRY       MOCLDY    20  13  75 N6        30.23R WCI  12
S. S. MARIE    PTCLDY    20   8  60 N9        30.22R WCI   9
MUNISING         N/A     28  25  88 N14       30.26R WCI  17
$$
MIZ004>006-011>014-085-090900-
CENTRAL UPPER MICHIGAN

CITY           SKY/WX    TMP DP  RH WIND       PRES   REMARKS
MANISTIQUE     FLURRIES  22  21  97 W5        30.27R WCI  16
ESCANABA       CLOUDY    19  13  77 W9        30.32R WCI   8
MENOMINEE      CLEAR     22  12  65 NW10G17   30.35R WCI  11
SAWYER-GWINN   PTCLDY    13  11  90 NW6       30.27R WCI   4
$$
MIZ001>003-009>011-084-090900-
WESTERN UPPER MICHIGAN

CITY           SKY/WX    TMP DP  RH WIND       PRES   REMARKS
IRON MOUNTAIN  CLEAR     17   9  70 NW10      30.30R WCI   5
HOUGHTON       LGT SNOW  20  14  77 N9        30.30R WCI   9
COPPER HARBOR    N/A     24  19  81 NE17      30.31R WCI  11
IRONWOOD       LGT SNOW  18  12  77 NW6       30.37S WCI  10
$$

ABBREVIATIONS USED IN REMARKS
   TC - TEMPERATURE IN CELSIUS
  WCI - WIND CHILL INDEX
   HX - HEAT INDEX
  VSB - VISIBILITY




USA.gov is the U.S. government's official web portal to all federal, state and local government web resources and services.